SCP
2 1 1 1 1 1 1 1 1 1 1 0 0 0 0 1 1 1 1 1 1 1 1 1 1 1 1 1 1 1 1 1 1 1 1 1 1 1 1 0 1 1 1
2 1 1 1 1 1 1 1 1 1 1 0 0 0 0 0 1 1 1 1 1 1 1 1 1 1 1 1 1 1 1 1 1 1 1 1 1 1 0 0 1 1 1
2 1 1 1 0 0 0 1 1 1 1 1 1 1 0 0 1 1 1 1 1 1 1 1 1 1 1 1 1 1 1 1 1 1 1 1 1 1 0 0 1 1 1
2 1 1 1 1 1 1 1 1 1 1 1 1 1 1 1 1 1 1 1 1 1 1 1 1 1 1 1 1 1 1 1 1 1 1 1 1 1 1 1 1 1 1
2 2 1 1 1 1 1 1 1 1 1 1 1 1 1 1 1 1 1 1 1 1 1 1 1 2 2 1 1 1 2 1 1 1 1 1 1 1 1 1 1 1 1
2 2 1 1 1 1 1 1 1 1 1 1 1 1 1 1 1 1 1 1 1 1 1 1 1 2 2 1 1 2 2 1 1 1 1 1 1 1 1 1 1 1 1
2 2 1 1 1 1 1 1 1 1 1 1 1 1 1 1 1 1 1 1 1 1 1 1 1 1 1 2 2 2 2 2 1 2 2 1 1 1 1 1 1 1 1
1 1 1 1 1 1 1 1 2 1 1 2 1 1 1 1 1 1 1 1 1 1 2 2 2 2 2 2 2 2 3 2 2 2 2 2 1 1 1 1 1 1 1
1 1 1 1 1 1 1 1 1 1 2 2 2 2 2 2 1 1 1 1 1 1 1 2 2 2 2 2 2 2 2 2 2 2 2 2 2 1 1 1 1 1 1
1 1 1 1 1 1 1 1 1 2 2 3 4 4 4 3 3 2 1 1 1 1 1 1 2 2 2 2 2 2 1 1 1 1 2 2 2 1 1 1 1 1 1
1 1 1 1 1 1 1 1 1 2 3 4 5 5 5 5 4 3 2 1 1 1 1 1 1 2 2 2 2 1 1 1 1 1 1 1 1 1 1 1 1 1 1
1 1 1 1 1 1 1 1 1 2 3 3 4 5 5 5 4 3 2 2 1 1 1 1 1 1 2 2 2 1 1 1 1 1 1 1 1 1 1 1 1 1 1
1 1 1 1 1 1 1 1 1 1 2 2 3 4 4 4 3 3 2 2 1 1 1 1 1 1 1 2 2 2 2 1 1 1 1 1 1 1 1 1 1 1 1
2 2 2 1 1 1 1 1 1 1 1 1 1 2 2 2 2 2 2 2 1 1 1 1 1 1 1 2 2 2 2 2 1 1 1 1 1 1 1 1 1 1 1
3 3 2 2 2 1 1 1 1 1 1 1 1 1 1 1 1 1 2 2 1 1 2 2 2 2 2 2 1 2 2 1 1 1 1 1 0 0 0 1 1 1 1
3 3 3 3 2 2 2 1 1 1 1 1 1 1 1 1 1 1 1 1 1 2 2 2 2 2 2 2 2 1 1 1 1 0 0 0 0 0 0 0 1 1 1
4 4 3 3 3 2 2 1 1 1 1 1 1 2 2 1 1 1 1 1 1 1 2 2 2 3 3 3 2 2 1 1 1 0 0 0 0 0 0 0 0 0 0
4 4 4 3 3 2 2 2 1 2 2 2 2 2 1 1 1 1 1 1 1 1 1 2 2 2 3 3 3 2 1 1 1 0 0 0 0 0 0 0 0 0 0
5 5 4 4 3 3 2 2 2 2 2 2 2 2 1 1 0 0 1 1 1 1 1 1 1 2 3 3 3 2 2 1 1 1 0 0 0 0 0 0 0 0 0
4 5 5 4 4 3 3 2 2 2 2 1 1 1 1 1 1 1 0 0 0 1 1 1 1 2 3 3 3 2 2 1 1 1 1 0 0 0 0 0 0 0 0
4 5 5 5 5 4 3 2 2 2 1 1 1 1 1 0 0 1 0 0 0 0 1 1 1 2 2 3 3 2 2 1 1 1 1 0 0 0 0 0 0 0 0
5 5 5 6 5 4 3 2 2 1 1 1 1 1 1 1 1 0 0 0 0 0 0 1 1 1 2 2 3 3 2 2 1 1 1 1 0 0 0 0 0 0 0
5 5 5 6 5 4 2 1 1 1 1 1 1 1 1 1 1 1 1 1 0 0 0 1 1 1 1 2 2 3 2 2 1 1 1 0 0 0 0 0 0 0 0
6 5 5 5 5 3 1 0 0 1 1 1 1 1 1 1 1 1 1 1 1 1 0 1 1 1 1 1 1 1 1 1 1 1 0 0 0 0 0 0 0 0 0
6 6 5 4 4 2 1 0 0 1 1 1 1 1 1 1 1 1 1 1 1 1 1 1 1 1 1 1 1 1 1 1 1 0 0 0 0 0 0 0 0 0 0
7 6 5 4 3 2 1 0 0 0 1 1 1 1 1 1 1 0 1 1 1 1 1 1 1 1 1 0 0 1 1 1 0 0 0 0 0 0 0 0 0 0 0
Wind_Speed
1 1 1 1 1 1 1 1 1 1 1 1 1 1 1 1 1 1 1 4 6 7 7 7 7 8 8 8 8 7 7 7 7 7 7 7 8 8 8 8 8 9 9
1 1 1 1 1 1 1 1 1 1 0 0 0 0 1 1 1 1 1 2 4 6 7 7 7 8 8 8 8 8 7 7 6 7 7 7 7 7 8 8 8 9 10
1 1 1 0 0 1 1 1 1 1 1 1 1 0 0 1 1 1 1 1 2 4 6 7 7 8 8 8 8 8 8 7 7 6 6 6 6 6 7 7 8 8 8
1 1 1 0 0 1 1 1 1 1 1 1 0 0 0 0 1 1 1 1 1 2 3 5 6 7 8 8 8 8 8 8 8 7 7 7 7 7 8 8 8 7 7
1 1 1 0 1 1 1 0 1 1 1 1 0 0 0 0 0 1 1 1 1 1 1 3 5 6 7 7 8 8 8 8 8 7 7 7 8 7 8 9 8 8 9
1 1 1 1 1 1 1 1 1 1 1 0 1 1 1 0 0 0 1 0 1 1 1 2 2 3 6 6 6 7 7 7 7 8 8 8 8 7 7 7 8 8 9
1 1 1 1 1 1 1 1 1 1 1 1 1 2 2 1 1 0 0 1 0 1 1 1 1 2 2 4 5 6 6 6 6 6 7 8 8 7 7 8 8 8 9
1 1 1 1 1 1 1 1 1 1 1 1 1 1 2 2 2 1 0 0 0 0 1 1 1 1 2 1 2 4 5 6 6 5 5 7 7 7 7 8 8 8 9
1 1 1 1 1 1 1 1 1 2 1 0 1 2 1 1 2 2 1 1 1 0 1 1 1 2 2 1 2 3 5 5 6 6 6 5 6 6 6 7 8 8 9
1 1 1 1 1 1 1 1 1 1 2 1 0 1 1 2 1 1 2 2 1 1 1 1 1 1 1 1 2 3 4 4 5 5 5 6 5 6 6 7 8 8 8
0 0 1 1 1 1 1 1 1 1 1 1 1 1 1 1 1 1 1 2 2 2 2 1 1 1 2 2 2 3 4 4 3 4 4 5 5 5 6 8 9 9 9
0 0 1 1 1 1 1 1 1 1 1 1 1 1 1 1 1 1 1 2 2 2 2 1 1 2 2 2 3 3 3 3 3 3 3 4 4 5 5 6 7 8 8
1 1 1 1 1 1 1 1 1 1 1 1 1 1 1 1 1 1 1 1 1 2 2 1 1 1 2 1 2 3 2 2 2 2 2 2 3 3 4 4 5 6 6
2 1 1 1 1 1 1 1 1 1 1 1 1 1 1 1 1 2 2 2 1 1 1 2 1 2 2 2 2 2 2 2 1 1 1 1 2 2 3 3 3 3 4
2 2 2 2 1 1 1 2 1 1 1 1 1 1 1 0 0 1 1 2 2 1 2 1 1 2 2 1 2 1 1 2 1 1 1 1 1 1 2 2 1 1 1
2 2 2 2 2 1 1 1 1 1 1 0 0 1 0 0 0 0 1 1 1 2 2 1 1 2 2 2 3 2 2 3 2 1 1 1 1 1 0 0 0 1 1
2 2 2 2 2 1 1 1 1 1 1 0 0 1 0 0 0 0 0 1 1 1 1 2 1 2 2 2 3 2 2 1 2 3 1 1 1 1 1 1 1 1 0
2 2 2 2 1 1 1 2 1 1 1 1 0 1 0 0 1 0 0 0 0 1 2 2 1 1 1 2 3 2 2 2 2 3 2 2 2 2 2 1 1 1 1
2 2 2 2 1 1 1 1 2 1 1 1 1 1 1 1 0 0 1 0 0 0 0 1 1 1 1 2 2 2 3 2 2 2 2 1 1 1 1 1 1 1 1
2 2 2 2 2 2 2 2 2 1 1 1 1 1 1 2 2 1 1 1 1 1 1 1 0 1 1 1 1 2 2 2 2 2 2 2 2 1 1 1 1 1 1
3 2 2 2 2 2 2 2 2 2 1 1 1 1 1 1 2 2 1 1 2 1 1 1 0 1 1 1 1 1 2 2 2 2 2 2 1 1 1 0 0 1 1
2 2 2 2 2 3 2 3 3 2 2 2 1 1 1 1 1 1 2 2 3 3 2 1 1 1 2 2 1 1 1 1 1 1 1 2 1 1 1 0 1 1 2
3 3 3 3 3 4 4 4 4 3 2 2 2 2 1 1 1 1 1 1 1 2 3 3 3 3 3 3 2 1 1 1 2 1 1 1 1 1 1 1 1 1 1
3 3 3 4 4 4 4 5 4 3 3 3 3 3 3 2 2 2 2 1 1 2 2 3 3 4 3 3 3 3 2 2 1 1 0 1 1 2 2 1 1 1 1
3 3 3 3 4 4 5 5 5 3 3 3 3 3 3 4 4 4 3 2 2 2 2 2 3 3 2 2 2 1 1 1 1 1 0 1 1 2 1 1 1 1 1
3 3 3 3 4 4 5 5 6 3 3 3 3 3 4 4 4 5 4 4 3 3 2 1 2 2 2 1 2 2 2 2 1 1 1 1 0 1 1 1 1 1 1
Wind_Direction
97 57 28 44 43 48 63 67 66 58 65 75 113 143 163 178 189 201 226 214 207 201 202 204 208 209 206 205 208 209 213 213 210 207 208 214 219 220 218 216 214 212 212
112 98 56 43 36 43 70 87 81 62 41 80 75 95 175 187 207 216 232 223 211 204 204 209 211 214 211 211 210 209 214 216 218 216 215 217 218 219 218 219 217 216 214
139 139 115 68 21 47 70 73 60 66 71 77 81 85 169 193 213 229 239 220 214 214 214 214 214 214 217 219 217 220 220 220 222 220 218 216 216 215 217 219 220 216 213
155 141 118 113 76 83 78 90 69 77 61 70 69 348 4 182 218 206 199 202 212 230 222 219 220 220 222 224 224 227 226 225 225 225 222 219 222 220 220 218 216 217 214
159 146 155 158 93 89 74 63 70 97 90 59 70 42 17 203 240 173 170 199 206 218 234 229 226 227 229 230 232 231 232 233 232 227 226 225 227 224 221 219 217 217 218
165 150 142 105 100 91 60 65 77 73 90 55 53 33 11 1 52 105 187 166 177 201 228 247 240 238 237 240 241 238 240 242 239 229 226 227 229 226 222 223 222 219 221
160 148 133 106 108 116 132 121 106 83 65 75 73 26 12 31 55 64 84 110 157 206 199 230 244 246 250 254 255 249 247 245 239 230 226 228 230 229 228 228 227 225 225
158 161 155 152 132 126 97 115 136 124 84 84 108 72 6 2 7 21 45 129 128 204 217 228 227 242 249 242 257 254 254 249 240 237 230 226 227 229 230 230 230 229 229
135 149 149 148 140 145 159 180 165 152 159 67 98 131 140 245 317 346 358 6 2 282 263 261 238 247 239 237 249 264 261 259 245 240 232 232 228 227 230 233 233 230 228
95 131 141 148 140 141 163 205 163 160 155 157 101 101 152 162 169 323 337 343 340 317 289 278 281 263 256 247 248 264 272 261 245 239 234 234 234 232 233 236 238 236 233
21 118 145 140 147 163 178 176 142 147 156 159 154 149 113 82 138 177 283 321 340 327 306 284 282 285 272 258 255 269 276 269 244 236 238 237 238 244 244 243 243 241 238
345 19 143 149 159 158 167 173 151 132 137 143 145 144 153 164 187 183 225 285 310 320 324 315 303 292 285 277 269 276 273 275 244 229 237 238 241 246 254 255 247 244 241
203 233 157 153 156 159 138 121 107 112 130 144 161 170 177 198 179 171 178 248 289 310 327 333 317 313 311 304 289 295 287 287 234 216 227 232 244 248 252 252 249 243 245
204 183 151 141 129 116 112 113 109 107 102 124 139 144 157 196 184 184 180 177 269 312 318 306 329 344 331 321 323 311 308 300 276 216 227 239 248 251 250 243 243 245 248
180 152 145 129 113 107 117 122 116 107 103 111 150 144 153 226 204 217 193 186 183 224 273 287 310 329 326 333 348 340 318 326 324 247 226 240 255 258 259 247 244 215 198
166 148 139 132 124 120 119 114 116 115 108 70 177 130 100 289 190 149 182 207 198 188 225 258 277 315 333 344 2 350 326 341 348 327 234 265 281 262 195 198 230 171 162
161 163 161 146 142 147 137 127 137 133 123 67 26 125 96 217 121 82 125 136 153 173 206 271 294 329 345 351 346 347 347 335 345 4 37 62 70 91 87 41 23 74 108
164 164 158 154 161 152 164 166 187 177 167 173 198 127 140 135 94 88 100 88 159 188 187 234 284 317 325 333 332 336 351 359 355 11 27 38 58 64 57 54 60 70 80
173 170 166 175 188 189 192 196 184 188 184 198 205 194 209 147 132 118 112 81 20 94 141 188 265 331 322 338 336 341 357 351 352 357 354 360 7 18 36 52 76 100 98
181 181 182 193 199 198 200 201 181 177 184 217 216 203 200 186 190 188 167 169 137 113 108 137 260 323 304 320 339 332 340 347 340 348 2 13 4 351 347 37 78 82 126
186 185 183 195 206 203 208 193 188 182 184 203 234 226 207 194 187 180 166 173 153 140 143 159 237 315 312 323 318 306 309 322 330 352 348 356 347 335 327 312 130 85 88
177 176 196 203 211 221 211 195 181 182 190 198 225 257 254 221 200 173 167 167 162 166 178 182 218 241 264 263 277 293 297 323 311 342 333 329 344 320 313 282 26 106 127
184 190 210 212 221 227 209 201 191 182 192 210 219 231 246 237 208 189 153 126 186 190 185 189 208 233 242 238 234 254 251 254 260 294 288 296 325 319 319 339 19 99 124
202 207 214 218 222 230 207 198 194 190 201 222 226 223 221 231 219 189 180 195 249 249 237 221 221 237 245 233 219 229 241 257 284 286 283 278 316 312 326 321 5 54 55
213 217 217 220 221 235 214 201 190 189 211 234 235 228 219 223 219 194 180 203 260 278 266 233 236 255 265 236 191 169 178 188 280 279 236 263 295 302 309 319 334 16 26
211 214 225 227 223 230 223 209 193 194 213 234 241 238 229 223 217 197 194 201 231 254 265 287 294 299 282 259 192 200 202 200 219 258 209 224 268 334 305 306 326 341 350